Regional Weather Roundup
Issued by NWS

Home | Current Version | Previous Version | Graphics & Text | Print | Product List | Glossary On
Versions: 1 2 3 4 5 6 7 8 9 10 11 12 13 14 15 16 17 18 19 20 21 22 23 24 25 26 27 28 29 30 31 32 33 34 35 36 37 38 39 40 41 42 43 44 45 46 47 48 49
000
ASUS45 KBOI 271810
RWRID

IDAHO REGIONAL WEATHER ROUNDUP
NATIONAL WEATHER SERVICE BOISE ID
1200 PM MDT WED MAY 27 2015

NOTE: "FAIR" INDICATES FEW OR NO CLOUDS BELOW 12000 FEET
WITH NO SIGNIFICANT WEATHER AND/OR OBSTRUCTIONS TO VISIBILITY

IDZ012-014-271900-
SOUTHWEST IDAHO


CITY           SKY/WX    TMP DP  RH WIND       PRES   REMARKS
BOISE          SUNNY     67  48  50 N3        30.01S
CALDWELL       SUNNY     68  45  42 CALM      30.01F
MOUNTAIN HOME  SUNNY     68  44  41 VRB7      30.00F
$$

IDZ016-017-271900-
SOUTHCENTRAL IDAHO


CITY           SKY/WX    TMP DP  RH WIND       PRES   REMARKS
BURLEY         SUNNY     64  47  53 VRB6      30.02S
JEROME         SUNNY     63  46  54 VRB3      30.03F
TWIN FALLS     SUNNY     68  46  45 W9        30.01F
$$

IDZ019>023-271900-
SOUTHEAST IDAHO


CITY           SKY/WX    TMP DP  RH WIND       PRES   REMARKS
IDAHO FALLS    PTSUNNY   58  51  78 CALM      30.06F
POCATELLO      PTSUNNY   64  50  60 VRB3      30.05F
REXBURG        PTSUNNY   58  48  69 W7        30.06F
$$

IDZ006-010-011-018-031-032-271900-
CENTRAL IDAHO MOUNTAINS


CITY           SKY/WX    TMP DP  RH WIND       PRES   REMARKS
MCCALL         CLOUDY    56  41  57 S10       30.02F
HAILEY         SUNNY     54  45  71 NW12      30.08F
STANLEY          N/A     57  36  45 VRB5      30.08F
SALMON         CLOUDY    55  45  67 NW3       30.03F
CHALLIS        PTSUNNY   57  43  59 NE3       30.03F
$$

IDZ002-004-006-007-026-271900-
NORTHERN IDAHO


CITY           SKY/WX    TMP DP  RH WIND       PRES   REMARKS
LEWISTON       MOSUNNY   69  49  48 VRB3      30.01S
LOWELL           N/A     69  47  45 S5        29.97F
COEUR D`ALENE  PTSUNNY   64  52  63 N3        30.01F
MULLAN PASS    LGT RAIN  46  44  93 NW5       30.08S
$$


USA.gov is the U.S. government's official web portal to all federal, state and local government web resources and services.